Regional Weather Roundup
Issued by NWS Columbia, SC

Home | Current Version | Previous Version | Text Only | Print | Product List | Glossary On
Versions: 1 2 3 4 5 6 7 8 9 10 11 12 13 14 15 16 17 18 19 20 21 22 23 24 25 26 27 28 29 30 31 32 33 34 35 36 37 38 39 40 41 42 43 44 45 46 47 48 49 50
000
ASUS42 KCAE 281110
RWRCAE
REGIONAL WEATHER ROUNDUP
NATIONAL WEATHER SERVICE COLUMBIA SC
600 AM EST TUE FEB 28 2017

NOTE: "FAIR" INDICATES FEW OR NO CLOUDS BELOW 12,000 FEET WITH NO
SIGNIFICANT WEATHER AND/OR OBSTRUCTIONS TO VISIBILITY.

NOT ALL STATIONS ARE QUALITY CONTROLLED BY THE NATIONAL
WEATHER SERVICE. USE DATA WITH CAUTION...ESPECIALLY
DEWPOINT OBSERVATIONS.

SCZ001>056-GAZ040-063>065-077-281200-
...UPSTATE SOUTH CAROLINA...

CITY           SKY/WX    TMP DP  RH WIND       PRES   REMARKS
ANDERSON       CLOUDY    49  37  63 CALM      30.29R
LIBERTY        CLOUDY    46  39  76 CALM      30.28R
SPARTANBURG    CLEAR     43  32  65 CALM      30.29R
CLEMSON        CLOUDY    52  37  56 CALM      30.30R
GREENVILLE     PTCLDY    51  32  48 NE5       30.29R
GREENWOOD      CLEAR     44  37  76 CALM      30.30R
GREER          CLOUDY    48  33  56 N3        30.28R
ROCK HILL      CLEAR     45  39  79 CALM      30.28F
CHESTER        SUNNY     46  36  66 CALM      30.28F
LAURENS        SUNNY     43  37  81 N3        30.29R


...CENTRAL SOUTH CAROLINA...

CITY           SKY/WX    TMP DP  RH WIND       PRES   REMARKS
COLUMBIA APT   CLEAR     59  53  80 CALM      30.27S
COLUMBIA OWENS CLEAR     56  52  86 CALM      30.29R
MCENTIRE ANGB  CLEAR     55  52  90 CALM      30.28S
ORANGEBURG     CLOUDY    60  55  83 N3        30.28R
SUMTER SHAW    CLOUDY    55  51  86 CALM      30.26R
NEWBERRY       SUNNY     45  41  87 CALM      30.31S
AIKEN          FAIR      52  50  93 CALM      30.31R
BARNWELL       PTSUNNY   61  57  88 CALM      30.28R
MANNING        PTSUNNY   59  54  82 MISG      30.28R
CAMDEN         FAIR      54  50  87 CALM      30.28S
LANCASTER      SUNNY     48  48 100 CALM      30.29S
WINNSBORO      SUNNY     55  52  88 E7        30.27F


...EASTERN AND COASTAL SOUTH CAROLINA...

CITY           SKY/WX    TMP DP  RH WIND       PRES   REMARKS
MYRTLE BEACH   CLOUDY    62  61  96 CALM      30.29S
N MYRTLE BCH   MOCLDY    61  61 100 CALM      30.29S
CONWAY         FAIR      59  57  94 CALM      30.29R
MARION         CLOUDY    55  52  88 CALM      30.28S
HARTSVILLE     PTSUNNY   55  50  82 E3        30.28S
FLORENCE       PTCLDY    56  54  93 E3        30.28F
DARLINGTON     CLOUDY    56  52  86 CALM      30.28F
CHARLESTON APT PTCLDY    62  59  90 SE6       30.26F
MOUNT PLEASANT FAIR      63  61  94 CALM      30.28S
WALTERBORO     CLOUDY    61  61 100 CALM      30.28R
BEAUFORT       CLOUDY    65  65 100 CALM      30.26S


...EASTERN GEORGIA...

CITY           SKY/WX    TMP DP  RH WIND       PRES   REMARKS
AUGUSTA BUSH F PTCLDY    52  51  97 CALM      30.28R FOG
AUGUSTA DANIEL PTCLDY    58  51  78 CALM      30.29R
THOMSON        CLEAR     49  49 100 CALM      30.33S
WASHINGTON     FAIR      46  46 100 CALM      30.29R
CLAXTON        CLOUDY   N/A N/A N/A CALM      30.27R
SYLVANIA       CLOUDY   N/A N/A N/A CALM      30.28R
STATESBORO     CLOUDY    64  32  30 CALM      30.27R
SAVANNAH       CLOUDY    63  61  93 N3        30.27R


...SOUTHERN NORTH CAROLINA...

CITY           SKY/WX    TMP DP  RH WIND       PRES   REMARKS
CHARLOTTE      PTCLDY    46  35  65 CALM      30.28F
MONROE         CLEAR     49  44  83 CALM      30.27S
WADESBORO      SUNNY     50  46  85 CALM      30.28F
ROCKINGHAM     PTSUNNY   52  49  91 CALM      30.28S
RUTHERFORDTON  CLOUDY    44  32  61 CALM      30.30R
ASHEVILLE      CLEAR     37  32  82 CALM      30.29R

$$



USA.gov is the U.S. government's official web portal to all federal, state and local government web resources and services.